Date_Time,Julian_Date,Latitude,Longitude,Instrument_Depth,U,V,Speed,Direction
(yyyy-mm-dd hh:mn:ss UTC),(JD),(+ deg. North),(+ deg. East),(m),(cm/s),(cm/s),(cm/s),(deg True)
1983-12-12 18:00:00 UTC,2445681.250000,28.7317,-95.2428,0109,16.09,13.50,21.0000,50.0000
1983-12-12 18:30:00 UTC,2445681.270833,28.7317,-95.2428,0109,15.32,12.86,20.0000,50.0000
1983-12-12 19:00:00 UTC,2445681.291667,28.7317,-95.2428,0109,14.77,11.96,19.0000,51.0000
1983-12-12 19:30:00 UTC,2445681.312500,28.7317,-95.2428,0109,13.99,11.33,18.0000,51.0000
1983-12-12 20:00:00 UTC,2445681.333333,28.7317,-95.2428,0109,14.18,11.08,18.0000,52.0000
1983-12-12 20:30:00 UTC,2445681.354167,28.7317,-95.2428,0109,14.18,11.08,18.0000,52.0000
1983-12-12 21:00:00 UTC,2445681.375000,28.7317,-95.2428,0109,14.77,11.96,19.0000,51.0000
1983-12-12 21:30:00 UTC,2445681.395833,28.7317,-95.2428,0109,14.12,12.71,19.0000,48.0000
1983-12-12 22:00:00 UTC,2445681.416667,28.7317,-95.2428,0109,13.89,14.39,20.0000,44.0000
1983-12-12 22:30:00 UTC,2445681.437500,28.7317,-95.2428,0109,12.86,15.32,20.0000,40.0000
1983-12-12 23:00:00 UTC,2445681.458333,28.7317,-95.2428,0109,12.04,15.97,20.0000,37.0000
1983-12-12 23:30:00 UTC,2445681.479167,28.7317,-95.2428,0109,11.74,17.41,21.0000,34.0000
1983-12-13 00:00:00 UTC,2445681.500000,28.7317,-95.2428,0109,10.50,18.19,21.0000,30.0000
1983-12-13 00:30:00 UTC,2445681.520833,28.7317,-95.2428,0109,9.64,19.77,22.0000,26.0000
1983-12-13 01:00:00 UTC,2445681.541667,28.7317,-95.2428,0109,9.72,20.85,23.0000,25.0000
1983-12-13 01:30:00 UTC,2445681.562500,28.7317,-95.2428,0109,10.08,20.67,23.0000,26.0000
1983-12-13 02:00:00 UTC,2445681.583333,28.7317,-95.2428,0109,10.44,20.49,23.0000,27.0000
1983-12-13 02:30:00 UTC,2445681.604167,28.7317,-95.2428,0109,10.80,20.31,23.0000,28.0000
1983-12-13 03:00:00 UTC,2445681.625000,28.7317,-95.2428,0109,10.67,19.24,22.0000,29.0000
1983-12-13 03:30:00 UTC,2445681.645833,28.7317,-95.2428,0109,11.00,19.05,22.0000,30.0000
1983-12-13 04:00:00 UTC,2445681.666667,28.7317,-95.2428,0109,11.44,17.61,21.0000,33.0000
1983-12-13 04:30:00 UTC,2445681.687500,28.7317,-95.2428,0109,12.04,15.97,20.0000,37.0000
1983-12-13 05:00:00 UTC,2445681.708333,28.7317,-95.2428,0109,12.47,14.34,19.0000,41.0000
1983-12-13 05:30:00 UTC,2445681.729167,28.7317,-95.2428,0109,13.44,13.44,19.0000,45.0000
1983-12-13 06:00:00 UTC,2445681.750000,28.7317,-95.2428,0109,13.02,10.93,17.0000,50.0000
1983-12-13 06:30:00 UTC,2445681.770833,28.7317,-95.2428,0109,12.78,9.63,16.0000,53.0000
1983-12-13 07:00:00 UTC,2445681.791667,28.7317,-95.2428,0109,12.29,8.60,15.0000,55.0000
1983-12-13 07:30:00 UTC,2445681.812500,28.7317,-95.2428,0109,11.87,7.42,14.0000,58.0000
1983-12-13 08:00:00 UTC,2445681.833333,28.7317,-95.2428,0109,11.58,5.90,13.0000,63.0000
1983-12-13 08:30:00 UTC,2445681.854167,28.7317,-95.2428,0109,11.97,5.08,13.0000,67.0000
1983-12-13 09:00:00 UTC,2445681.875000,28.7317,-95.2428,0109,12.05,4.87,13.0000,68.0000
1983-12-13 09:30:00 UTC,2445681.895833,28.7317,-95.2428,0109,11.97,5.08,13.0000,67.0000
1983-12-13 10:00:00 UTC,2445681.916667,28.7317,-95.2428,0109,12.98,5.24,14.0000,68.0000
1983-12-13 10:30:00 UTC,2445681.937500,28.7317,-95.2428,0109,13.24,4.56,14.0000,71.0000
1983-12-13 11:00:00 UTC,2445681.958333,28.7317,-95.2428,0109,11.64,2.90,12.0000,76.0000
1983-12-13 11:30:00 UTC,2445681.979167,28.7317,-95.2428,0109,8.80,1.87,9.0000,78.0000
1983-12-13 12:00:00 UTC,2445682.000000,28.7317,-95.2428,0109,4.87,1.12,5.0000,77.0000
1983-12-13 12:30:00 UTC,2445682.020833,28.7317,-95.2428,0109,4.00,0.00,4.0000,90.0000
1983-12-13 13:00:00 UTC,2445682.041667,28.7317,-95.2428,0109,3.90,-0.90,4.0000,103.0000
1983-12-13 13:30:00 UTC,2445682.062500,28.7317,-95.2428,0109,1.53,-1.29,2.0000,130.0000
1983-12-13 14:00:00 UTC,2445682.083333,28.7317,-95.2428,0109,0.91,-1.78,2.0000,153.0000
1983-12-13 14:30:00 UTC,2445682.104167,28.7317,-95.2428,0109,2.46,-3.15,4.0000,142.0000
1983-12-13 15:00:00 UTC,2445682.125000,28.7317,-95.2428,0109,0.73,-2.91,3.0000,166.0000
1983-12-13 15:30:00 UTC,2445682.145833,28.7317,-95.2428,0109,-1.88,-3.53,4.0000,208.0000
1983-12-13 16:00:00 UTC,2445682.166667,28.7317,-95.2428,0109,-1.71,-4.70,5.0000,200.0000
1983-12-13 16:30:00 UTC,2445682.187500,28.7317,-95.2428,0109,-1.75,-5.74,6.0000,197.0000
1983-12-13 17:00:00 UTC,2445682.208333,28.7317,-95.2428,0109,-3.86,-4.60,6.0000,220.0000
1983-12-13 17:30:00 UTC,2445682.229167,28.7317,-95.2428,0109,-5.25,-2.91,6.0000,241.0000
1983-12-13 18:00:00 UTC,2445682.250000,28.7317,-95.2428,0109,-4.95,-4.95,7.0000,225.0000
1983-12-13 18:30:00 UTC,2445682.270833,28.7317,-95.2428,0109,-4.64,-7.71,9.0000,211.0000
1983-12-13 19:00:00 UTC,2445682.291667,28.7317,-95.2428,0109,-5.74,-8.19,10.0000,215.0000
1983-12-13 19:30:00 UTC,2445682.312500,28.7317,-95.2428,0109,-5.79,-6.89,9.0000,220.0000
1983-12-13 20:00:00 UTC,2445682.333333,28.7317,-95.2428,0109,-4.21,-5.59,7.0000,217.0000
1983-12-13 20:30:00 UTC,2445682.354167,28.7317,-95.2428,0109,-4.09,-4.39,6.0000,223.0000
1983-12-13 21:00:00 UTC,2445682.375000,28.7317,-95.2428,0109,-4.73,-3.69,6.0000,232.0000
1983-12-13 21:30:00 UTC,2445682.395833,28.7317,-95.2428,0109,-2.62,-3.02,4.0000,221.0000
1983-12-13 22:00:00 UTC,2445682.416667,28.7317,-95.2428,0109,0.55,-1.92,2.0000,164.0000
1983-12-13 22:30:00 UTC,2445682.437500,28.7317,-95.2428,0109,2.96,0.47,3.0000,81.0000
1983-12-13 23:00:00 UTC,2445682.458333,28.7317,-95.2428,0109,4.67,1.79,5.0000,69.0000
1983-12-13 23:30:00 UTC,2445682.479167,28.7317,-95.2428,0109,6.06,3.50,7.0000,60.0000
1983-12-14 00:00:00 UTC,2445682.500000,28.7317,-95.2428,0109,6.79,5.90,9.0000,49.0000
1983-12-14 00:30:00 UTC,2445682.520833,28.7317,-95.2428,0109,7.43,6.69,10.0000,48.0000
1983-12-14 01:00:00 UTC,2445682.541667,28.7317,-95.2428,0109,8.90,6.47,11.0000,54.0000
1983-12-14 01:30:00 UTC,2445682.562500,28.7317,-95.2428,0109,11.14,6.70,13.0000,59.0000
1983-12-14 02:00:00 UTC,2445682.583333,28.7317,-95.2428,0109,12.29,8.60,15.0000,55.0000
1983-12-14 02:30:00 UTC,2445682.604167,28.7317,-95.2428,0109,13.38,12.04,18.0000,48.0000
1983-12-14 03:00:00 UTC,2445682.625000,28.7317,-95.2428,0109,15.83,15.28,22.0000,46.0000
1983-12-14 03:30:00 UTC,2445682.645833,28.7317,-95.2428,0109,18.38,18.38,26.0000,45.0000
1983-12-14 04:00:00 UTC,2445682.666667,28.7317,-95.2428,0109,19.03,21.89,29.0000,41.0000
1983-12-14 04:30:00 UTC,2445682.687500,28.7317,-95.2428,0109,20.14,24.87,32.0000,39.0000
1983-12-14 05:00:00 UTC,2445682.708333,28.7317,-95.2428,0109,21.21,25.28,33.0000,40.0000
1983-12-14 05:30:00 UTC,2445682.729167,28.7317,-95.2428,0109,22.75,25.27,34.0000,42.0000
1983-12-14 06:00:00 UTC,2445682.750000,28.7317,-95.2428,0109,23.62,24.46,34.0000,44.0000
1983-12-14 06:30:00 UTC,2445682.770833,28.7317,-95.2428,0109,23.74,22.92,33.0000,46.0000
1983-12-14 07:00:00 UTC,2445682.791667,28.7317,-95.2428,0109,23.40,21.82,32.0000,47.0000
1983-12-14 07:30:00 UTC,2445682.812500,28.7317,-95.2428,0109,23.04,20.74,31.0000,48.0000
1983-12-14 08:00:00 UTC,2445682.833333,28.7317,-95.2428,0109,22.85,17.85,29.0000,52.0000
1983-12-14 08:30:00 UTC,2445682.854167,28.7317,-95.2428,0109,22.12,15.49,27.0000,55.0000
1983-12-14 09:00:00 UTC,2445682.875000,28.7317,-95.2428,0109,20.48,14.34,25.0000,55.0000
1983-12-14 09:30:00 UTC,2445682.895833,28.7317,-95.2428,0109,19.90,13.42,24.0000,56.0000
1983-12-14 10:00:00 UTC,2445682.916667,28.7317,-95.2428,0109,21.43,12.88,25.0000,59.0000
1983-12-14 10:30:00 UTC,2445682.937500,28.7317,-95.2428,0109,22.05,13.78,26.0000,58.0000
1983-12-14 11:00:00 UTC,2445682.958333,28.7317,-95.2428,0109,22.12,15.49,27.0000,55.0000
1983-12-14 11:30:00 UTC,2445682.979167,28.7317,-95.2428,0109,21.56,16.25,27.0000,53.0000
1983-12-14 12:00:00 UTC,2445683.000000,28.7317,-95.2428,0109,22.06,17.24,28.0000,52.0000
1983-12-14 12:30:00 UTC,2445683.020833,28.7317,-95.2428,0109,21.45,18.00,28.0000,50.0000
1983-12-14 13:00:00 UTC,2445683.041667,28.7317,-95.2428,0109,21.55,19.40,29.0000,48.0000
1983-12-14 13:30:00 UTC,2445683.062500,28.7317,-95.2428,0109,21.13,18.37,28.0000,49.0000
1983-12-14 14:00:00 UTC,2445683.083333,28.7317,-95.2428,0109,21.13,18.37,28.0000,49.0000
1983-12-14 14:30:00 UTC,2445683.104167,28.7317,-95.2428,0109,21.55,19.40,29.0000,48.0000
1983-12-14 15:00:00 UTC,2445683.125000,28.7317,-95.2428,0109,21.21,21.21,30.0000,45.0000
1983-12-14 15:30:00 UTC,2445683.145833,28.7317,-95.2428,0109,22.23,23.02,32.0000,44.0000
1983-12-14 16:00:00 UTC,2445683.166667,28.7317,-95.2428,0109,21.41,23.78,32.0000,42.0000
1983-12-14 16:30:00 UTC,2445683.187500,28.7317,-95.2428,0109,20.99,24.15,32.0000,41.0000
1983-12-14 17:00:00 UTC,2445683.208333,28.7317,-95.2428,0109,20.99,24.15,32.0000,41.0000
1983-12-14 17:30:00 UTC,2445683.229167,28.7317,-95.2428,0109,20.74,23.04,31.0000,42.0000
1983-12-14 18:00:00 UTC,2445683.250000,28.7317,-95.2428,0109,20.74,23.04,31.0000,42.0000
1983-12-14 18:30:00 UTC,2445683.270833,28.7317,-95.2428,0109,20.07,22.29,30.0000,42.0000
1983-12-14 19:00:00 UTC,2445683.291667,28.7317,-95.2428,0109,19.40,21.55,29.0000,42.0000
1983-12-14 19:30:00 UTC,2445683.312500,28.7317,-95.2428,0109,19.03,21.89,29.0000,41.0000
1983-12-14 20:00:00 UTC,2445683.333333,28.7317,-95.2428,0109,19.40,21.55,29.0000,42.0000
1983-12-14 20:30:00 UTC,2445683.354167,28.7317,-95.2428,0109,20.86,20.15,29.0000,46.0000
1983-12-14 21:00:00 UTC,2445683.375000,28.7317,-95.2428,0109,22.22,18.64,29.0000,50.0000
1983-12-14 21:30:00 UTC,2445683.395833,28.7317,-95.2428,0109,22.06,17.24,28.0000,52.0000
1983-12-14 22:00:00 UTC,2445683.416667,28.7317,-95.2428,0109,23.16,17.45,29.0000,53.0000
1983-12-14 22:30:00 UTC,2445683.437500,28.7317,-95.2428,0109,25.70,17.33,31.0000,56.0000
1983-12-14 23:00:00 UTC,2445683.458333,28.7317,-95.2428,0109,26.84,17.43,32.0000,57.0000
1983-12-14 23:30:00 UTC,2445683.479167,28.7317,-95.2428,0109,26.57,15.97,31.0000,59.0000
1983-12-15 00:00:00 UTC,2445683.500000,28.7317,-95.2428,0109,26.49,14.08,30.0000,62.0000
1983-12-15 00:30:00 UTC,2445683.520833,28.7317,-95.2428,0109,27.11,15.03,31.0000,61.0000
1983-12-15 01:00:00 UTC,2445683.541667,28.7317,-95.2428,0109,26.57,15.97,31.0000,59.0000
1983-12-15 01:30:00 UTC,2445683.562500,28.7317,-95.2428,0109,24.87,16.78,30.0000,56.0000
1983-12-15 02:00:00 UTC,2445683.583333,28.7317,-95.2428,0109,23.16,17.45,29.0000,53.0000
1983-12-15 02:30:00 UTC,2445683.604167,28.7317,-95.2428,0109,22.22,18.64,29.0000,50.0000
1983-12-15 03:00:00 UTC,2445683.625000,28.7317,-95.2428,0109,21.89,19.03,29.0000,49.0000
1983-12-15 03:30:00 UTC,2445683.645833,28.7317,-95.2428,0109,21.89,19.03,29.0000,49.0000
1983-12-15 04:00:00 UTC,2445683.666667,28.7317,-95.2428,0109,21.45,18.00,28.0000,50.0000
1983-12-15 04:30:00 UTC,2445683.687500,28.7317,-95.2428,0109,21.28,16.62,27.0000,52.0000
1983-12-15 05:00:00 UTC,2445683.708333,28.7317,-95.2428,0109,21.30,14.91,26.0000,55.0000
1983-12-15 05:30:00 UTC,2445683.729167,28.7317,-95.2428,0109,20.97,13.62,25.0000,57.0000
1983-12-15 06:00:00 UTC,2445683.750000,28.7317,-95.2428,0109,20.35,12.72,24.0000,58.0000
1983-12-15 06:30:00 UTC,2445683.770833,28.7317,-95.2428,0109,19.71,11.85,23.0000,59.0000
1983-12-15 07:00:00 UTC,2445683.791667,28.7317,-95.2428,0109,19.24,10.67,22.0000,61.0000
1983-12-15 07:30:00 UTC,2445683.812500,28.7317,-95.2428,0109,19.42,10.33,22.0000,62.0000
1983-12-15 08:00:00 UTC,2445683.833333,28.7317,-95.2428,0109,19.24,10.67,22.0000,61.0000
1983-12-15 08:30:00 UTC,2445683.854167,28.7317,-95.2428,0109,19.24,10.67,22.0000,61.0000
1983-12-15 09:00:00 UTC,2445683.875000,28.7317,-95.2428,0109,18.37,10.18,21.0000,61.0000
1983-12-15 09:30:00 UTC,2445683.895833,28.7317,-95.2428,0109,17.14,10.30,20.0000,59.0000
1983-12-15 10:00:00 UTC,2445683.916667,28.7317,-95.2428,0109,15.93,10.35,19.0000,57.0000
1983-12-15 10:30:00 UTC,2445683.937500,28.7317,-95.2428,0109,14.74,10.32,18.0000,55.0000
1983-12-15 11:00:00 UTC,2445683.958333,28.7317,-95.2428,0109,13.58,11.81,18.0000,49.0000
1983-12-15 11:30:00 UTC,2445683.979167,28.7317,-95.2428,0109,12.96,13.90,19.0000,43.0000
1983-12-15 12:00:00 UTC,2445684.000000,28.7317,-95.2428,0109,14.05,15.61,21.0000,42.0000
1983-12-15 12:30:00 UTC,2445684.020833,28.7317,-95.2428,0109,15.09,17.36,23.0000,41.0000
1983-12-15 13:00:00 UTC,2445684.041667,28.7317,-95.2428,0109,17.05,18.28,25.0000,43.0000
1983-12-15 13:30:00 UTC,2445684.062500,28.7317,-95.2428,0109,19.02,17.73,26.0000,47.0000
1983-12-15 14:00:00 UTC,2445684.083333,28.7317,-95.2428,0109,20.06,18.07,27.0000,48.0000
1983-12-15 14:30:00 UTC,2445684.104167,28.7317,-95.2428,0109,21.89,19.03,29.0000,49.0000
1983-12-15 15:00:00 UTC,2445684.125000,28.7317,-95.2428,0109,22.64,19.68,30.0000,49.0000
1983-12-15 15:30:00 UTC,2445684.145833,28.7317,-95.2428,0109,22.29,20.07,30.0000,48.0000
1983-12-15 16:00:00 UTC,2445684.166667,28.7317,-95.2428,0109,22.30,21.53,31.0000,46.0000
1983-12-15 16:30:00 UTC,2445684.187500,28.7317,-95.2428,0109,22.63,22.63,32.0000,45.0000
1983-12-15 17:00:00 UTC,2445684.208333,28.7317,-95.2428,0109,23.74,22.92,33.0000,46.0000
1983-12-15 17:30:00 UTC,2445684.229167,28.7317,-95.2428,0109,24.52,22.08,33.0000,48.0000
1983-12-15 18:00:00 UTC,2445684.250000,28.7317,-95.2428,0109,24.15,20.99,32.0000,49.0000
1983-12-15 18:30:00 UTC,2445684.270833,28.7317,-95.2428,0109,23.40,20.34,31.0000,49.0000
1983-12-15 19:00:00 UTC,2445684.291667,28.7317,-95.2428,0109,23.40,20.34,31.0000,49.0000
1983-12-15 19:30:00 UTC,2445684.312500,28.7317,-95.2428,0109,23.40,20.34,31.0000,49.0000
1983-12-15 20:00:00 UTC,2445684.333333,28.7317,-95.2428,0109,22.98,19.28,30.0000,50.0000
1983-12-15 20:30:00 UTC,2445684.354167,28.7317,-95.2428,0109,22.85,17.85,29.0000,52.0000
1983-12-15 21:00:00 UTC,2445684.375000,28.7317,-95.2428,0109,23.46,17.05,29.0000,54.0000
1983-12-15 21:30:00 UTC,2445684.395833,28.7317,-95.2428,0109,23.46,17.05,29.0000,54.0000
1983-12-15 22:00:00 UTC,2445684.416667,28.7317,-95.2428,0109,23.46,17.05,29.0000,54.0000
1983-12-15 22:30:00 UTC,2445684.437500,28.7317,-95.2428,0109,23.46,17.05,29.0000,54.0000
1983-12-15 23:00:00 UTC,2445684.458333,28.7317,-95.2428,0109,22.65,16.46,28.0000,54.0000
1983-12-15 23:30:00 UTC,2445684.479167,28.7317,-95.2428,0109,22.38,15.10,27.0000,56.0000
1983-12-16 00:00:00 UTC,2445684.500000,28.7317,-95.2428,0109,22.05,13.78,26.0000,58.0000
1983-12-16 00:30:00 UTC,2445684.520833,28.7317,-95.2428,0109,20.97,13.62,25.0000,57.0000
1983-12-16 01:00:00 UTC,2445684.541667,28.7317,-95.2428,0109,19.42,14.11,24.0000,54.0000
1983-12-16 01:30:00 UTC,2445684.562500,28.7317,-95.2428,0109,17.87,14.47,23.0000,51.0000
1983-12-16 02:00:00 UTC,2445684.583333,28.7317,-95.2428,0109,16.85,14.14,22.0000,50.0000
1983-12-16 02:30:00 UTC,2445684.604167,28.7317,-95.2428,0109,15.85,13.78,21.0000,49.0000
1983-12-16 03:00:00 UTC,2445684.625000,28.7317,-95.2428,0109,14.86,13.38,20.0000,48.0000
1983-12-16 03:30:00 UTC,2445684.645833,28.7317,-95.2428,0109,13.44,13.44,19.0000,45.0000
1983-12-16 04:00:00 UTC,2445684.666667,28.7317,-95.2428,0109,12.50,12.95,18.0000,44.0000
1983-12-16 04:30:00 UTC,2445684.687500,28.7317,-95.2428,0109,12.02,12.02,17.0000,45.0000
1983-12-16 05:00:00 UTC,2445684.708333,28.7317,-95.2428,0109,12.43,11.59,17.0000,47.0000
1983-12-16 05:30:00 UTC,2445684.729167,28.7317,-95.2428,0109,11.51,11.11,16.0000,46.0000
1983-12-16 06:00:00 UTC,2445684.750000,28.7317,-95.2428,0109,10.40,9.37,14.0000,48.0000
1983-12-16 06:30:00 UTC,2445684.770833,28.7317,-95.2428,0109,9.46,7.39,12.0000,52.0000
1983-12-16 07:00:00 UTC,2445684.791667,28.7317,-95.2428,0109,8.67,6.77,11.0000,52.0000
1983-12-16 07:30:00 UTC,2445684.812500,28.7317,-95.2428,0109,6.89,5.79,9.0000,50.0000
1983-12-16 08:00:00 UTC,2445684.833333,28.7317,-95.2428,0109,6.99,5.66,9.0000,51.0000
1983-12-16 08:30:00 UTC,2445684.854167,28.7317,-95.2428,0109,7.46,5.03,9.0000,56.0000
1983-12-16 09:00:00 UTC,2445684.875000,28.7317,-95.2428,0109,8.19,5.74,10.0000,55.0000
1983-12-16 09:30:00 UTC,2445684.895833,28.7317,-95.2428,0109,7.19,6.95,10.0000,46.0000
1983-12-16 10:00:00 UTC,2445684.916667,28.7317,-95.2428,0109,5.54,7.09,9.0000,38.0000
1983-12-16 10:30:00 UTC,2445684.937500,28.7317,-95.2428,0109,4.36,6.71,8.0000,33.0000
1983-12-16 11:00:00 UTC,2445684.958333,28.7317,-95.2428,0109,3.00,7.42,8.0000,22.0000
1983-12-16 11:30:00 UTC,2445684.979167,28.7317,-95.2428,0109,1.66,7.83,8.0000,12.0000
1983-12-16 12:00:00 UTC,2445685.000000,28.7317,-95.2428,0109,0.70,7.97,8.0000,5.0000
1983-12-16 12:30:00 UTC,2445685.020833,28.7317,-95.2428,0109,-0.14,8.00,8.0000,359.0000
1983-12-16 13:00:00 UTC,2445685.041667,28.7317,-95.2428,0109,-0.84,7.96,8.0000,354.0000
1983-12-16 13:30:00 UTC,2445685.062500,28.7317,-95.2428,0109,-0.94,8.95,9.0000,354.0000
1983-12-16 14:00:00 UTC,2445685.083333,28.7317,-95.2428,0109,-0.16,9.00,9.0000,359.0000
1983-12-16 14:30:00 UTC,2445685.104167,28.7317,-95.2428,0109,1.53,7.85,8.0000,11.0000
1983-12-16 15:00:00 UTC,2445685.125000,28.7317,-95.2428,0109,2.74,7.52,8.0000,20.0000
1983-12-16 15:30:00 UTC,2445685.145833,28.7317,-95.2428,0109,3.08,8.46,9.0000,20.0000
1983-12-16 16:00:00 UTC,2445685.166667,28.7317,-95.2428,0109,2.42,9.70,10.0000,14.0000
1983-12-16 16:30:00 UTC,2445685.187500,28.7317,-95.2428,0109,0.94,8.95,9.0000,6.0000
1983-12-16 17:00:00 UTC,2445685.208333,28.7317,-95.2428,0109,-1.95,4.60,5.0000,337.0000
1983-12-16 17:30:00 UTC,2445685.229167,28.7317,-95.2428,0109,-6.18,-3.29,7.0000,242.0000
1983-12-16 18:00:00 UTC,2445685.250000,28.7317,-95.2428,0109,-10.72,-9.00,14.0000,230.0000
1983-12-16 18:30:00 UTC,2445685.270833,28.7317,-95.2428,0109,-14.97,-11.70,19.0000,232.0000
1983-12-16 19:00:00 UTC,2445685.291667,28.7317,-95.2428,0109,-18.37,-13.84,23.0000,233.0000
1983-12-16 19:30:00 UTC,2445685.312500,28.7317,-95.2428,0109,-21.84,-15.87,27.0000,234.0000
1983-12-16 20:00:00 UTC,2445685.333333,28.7317,-95.2428,0109,-24.57,-17.21,30.0000,235.0000
1983-12-16 20:30:00 UTC,2445685.354167,28.7317,-95.2428,0109,-25.89,-18.81,32.0000,234.0000
1983-12-16 21:00:00 UTC,2445685.375000,28.7317,-95.2428,0109,-26.35,-19.86,33.0000,233.0000
1983-12-16 21:30:00 UTC,2445685.395833,28.7317,-95.2428,0109,-27.51,-19.98,34.0000,234.0000
1983-12-16 22:00:00 UTC,2445685.416667,28.7317,-95.2428,0109,-29.85,-20.13,36.0000,236.0000
1983-12-16 22:30:00 UTC,2445685.437500,28.7317,-95.2428,0109,-29.49,-20.65,36.0000,235.0000
1983-12-16 23:00:00 UTC,2445685.458333,28.7317,-95.2428,0109,-29.85,-20.13,36.0000,236.0000
1983-12-16 23:30:00 UTC,2445685.479167,28.7317,-95.2428,0109,-30.86,-18.54,36.0000,239.0000
1983-12-17 00:00:00 UTC,2445685.500000,28.7317,-95.2428,0109,-32.04,-18.50,37.0000,240.0000
1983-12-17 00:30:00 UTC,2445685.520833,28.7317,-95.2428,0109,-31.72,-19.06,37.0000,239.0000
1983-12-17 01:00:00 UTC,2445685.541667,28.7317,-95.2428,0109,-31.72,-19.06,37.0000,239.0000
1983-12-17 01:30:00 UTC,2445685.562500,28.7317,-95.2428,0109,-32.36,-17.94,37.0000,241.0000
1983-12-17 02:00:00 UTC,2445685.583333,28.7317,-95.2428,0109,-32.67,-17.37,37.0000,242.0000
1983-12-17 02:30:00 UTC,2445685.604167,28.7317,-95.2428,0109,-32.36,-17.94,37.0000,241.0000
1983-12-17 03:00:00 UTC,2445685.625000,28.7317,-95.2428,0109,-31.49,-17.45,36.0000,241.0000
1983-12-17 03:30:00 UTC,2445685.645833,28.7317,-95.2428,0109,-30.61,-16.97,35.0000,241.0000
1983-12-17 04:00:00 UTC,2445685.666667,28.7317,-95.2428,0109,-30.86,-18.54,36.0000,239.0000
1983-12-17 04:30:00 UTC,2445685.687500,28.7317,-95.2428,0109,-30.67,-20.69,37.0000,236.0000
1983-12-17 05:00:00 UTC,2445685.708333,28.7317,-95.2428,0109,-32.33,-21.81,39.0000,236.0000
1983-12-17 05:30:00 UTC,2445685.729167,28.7317,-95.2428,0109,-34.39,-22.33,41.0000,237.0000
1983-12-17 06:00:00 UTC,2445685.750000,28.7317,-95.2428,0109,-36.06,-23.42,43.0000,237.0000
1983-12-17 06:30:00 UTC,2445685.770833,28.7317,-95.2428,0109,-36.90,-23.96,44.0000,237.0000
1983-12-17 07:00:00 UTC,2445685.791667,28.7317,-95.2428,0109,-36.86,-25.81,45.0000,235.0000
1983-12-17 07:30:00 UTC,2445685.812500,28.7317,-95.2428,0109,-36.25,-28.32,46.0000,232.0000
1983-12-17 08:00:00 UTC,2445685.833333,28.7317,-95.2428,0109,-35.75,-28.95,46.0000,231.0000
1983-12-17 08:30:00 UTC,2445685.854167,28.7317,-95.2428,0109,-35.75,-28.95,46.0000,231.0000
1983-12-17 09:00:00 UTC,2445685.875000,28.7317,-95.2428,0109,-35.75,-28.95,46.0000,231.0000
1983-12-17 09:30:00 UTC,2445685.895833,28.7317,-95.2428,0109,-34.67,-27.09,44.0000,232.0000
1983-12-17 10:00:00 UTC,2445685.916667,28.7317,-95.2428,0109,-34.34,-25.88,43.0000,233.0000
1983-12-17 10:30:00 UTC,2445685.937500,28.7317,-95.2428,0109,-35.14,-26.48,44.0000,233.0000
1983-12-17 11:00:00 UTC,2445685.958333,28.7317,-95.2428,0109,-34.34,-25.88,43.0000,233.0000
1983-12-17 11:30:00 UTC,2445685.979167,28.7317,-95.2428,0109,-32.77,-22.94,40.0000,235.0000
1983-12-17 12:00:00 UTC,2445686.000000,28.7317,-95.2428,0109,-30.53,-19.08,36.0000,238.0000
1983-12-17 12:30:00 UTC,2445686.020833,28.7317,-95.2428,0109,-29.44,-17.00,34.0000,240.0000
1983-12-17 13:00:00 UTC,2445686.041667,28.7317,-95.2428,0109,-28.58,-16.50,33.0000,240.0000
1983-12-17 13:30:00 UTC,2445686.062500,28.7317,-95.2428,0109,-27.43,-16.48,32.0000,239.0000
1983-12-17 14:00:00 UTC,2445686.083333,28.7317,-95.2428,0109,-26.57,-15.97,31.0000,239.0000
1983-12-17 14:30:00 UTC,2445686.104167,28.7317,-95.2428,0109,-23.75,-14.84,28.0000,238.0000
1983-12-17 15:00:00 UTC,2445686.125000,28.7317,-95.2428,0109,-21.81,-14.16,26.0000,237.0000
1983-12-17 15:30:00 UTC,2445686.145833,28.7317,-95.2428,0109,-21.81,-14.16,26.0000,237.0000
1983-12-17 16:00:00 UTC,2445686.166667,28.7317,-95.2428,0109,-21.43,-12.88,25.0000,239.0000
1983-12-17 16:30:00 UTC,2445686.187500,28.7317,-95.2428,0109,-20.99,-11.64,24.0000,241.0000
1983-12-17 17:00:00 UTC,2445686.208333,28.7317,-95.2428,0109,-20.12,-11.15,23.0000,241.0000
1983-12-17 17:30:00 UTC,2445686.229167,28.7317,-95.2428,0109,-19.24,-10.67,22.0000,241.0000
1983-12-17 18:00:00 UTC,2445686.250000,28.7317,-95.2428,0109,-19.05,-11.00,22.0000,240.0000
1983-12-17 18:30:00 UTC,2445686.270833,28.7317,-95.2428,0109,-18.86,-11.33,22.0000,239.0000
1983-12-17 19:00:00 UTC,2445686.291667,28.7317,-95.2428,0109,-19.05,-11.00,22.0000,240.0000
1983-12-17 19:30:00 UTC,2445686.312500,28.7317,-95.2428,0109,-19.05,-11.00,22.0000,240.0000
1983-12-17 20:00:00 UTC,2445686.333333,28.7317,-95.2428,0109,-18.66,-11.66,22.0000,238.0000
1983-12-17 20:30:00 UTC,2445686.354167,28.7317,-95.2428,0109,-18.24,-12.30,22.0000,236.0000
1983-12-17 21:00:00 UTC,2445686.375000,28.7317,-95.2428,0109,-17.80,-12.93,22.0000,234.0000
1983-12-17 21:30:00 UTC,2445686.395833,28.7317,-95.2428,0109,-18.12,-14.16,23.0000,232.0000
1983-12-17 22:00:00 UTC,2445686.416667,28.7317,-95.2428,0109,-18.91,-14.78,24.0000,232.0000
1983-12-17 22:30:00 UTC,2445686.437500,28.7317,-95.2428,0109,-19.17,-14.44,24.0000,233.0000
1983-12-17 23:00:00 UTC,2445686.458333,28.7317,-95.2428,0109,-18.12,-14.16,23.0000,232.0000
1983-12-17 23:30:00 UTC,2445686.479167,28.7317,-95.2428,0109,-17.87,-14.47,23.0000,231.0000
1983-12-18 00:00:00 UTC,2445686.500000,28.7317,-95.2428,0109,-19.42,-14.11,24.0000,234.0000
1983-12-18 00:30:00 UTC,2445686.520833,28.7317,-95.2428,0109,-22.29,-13.39,26.0000,239.0000
1983-12-18 01:00:00 UTC,2445686.541667,28.7317,-95.2428,0109,-23.38,-13.50,27.0000,240.0000
1983-12-18 01:30:00 UTC,2445686.562500,28.7317,-95.2428,0109,-22.64,-14.71,27.0000,237.0000
1983-12-18 02:00:00 UTC,2445686.583333,28.7317,-95.2428,0109,-21.03,-15.28,26.0000,234.0000
1983-12-18 02:30:00 UTC,2445686.604167,28.7317,-95.2428,0109,-20.76,-15.65,26.0000,233.0000
1983-12-18 03:00:00 UTC,2445686.625000,28.7317,-95.2428,0109,-19.70,-15.39,25.0000,232.0000
1983-12-18 03:30:00 UTC,2445686.645833,28.7317,-95.2428,0109,-18.39,-15.43,24.0000,230.0000
1983-12-18 04:00:00 UTC,2445686.666667,28.7317,-95.2428,0109,-16.54,-15.98,23.0000,226.0000
1983-12-18 04:30:00 UTC,2445686.687500,28.7317,-95.2428,0109,-17.55,-16.37,24.0000,227.0000
1983-12-18 05:00:00 UTC,2445686.708333,28.7317,-95.2428,0109,-20.49,-16.01,26.0000,232.0000
1983-12-18 05:30:00 UTC,2445686.729167,28.7317,-95.2428,0109,-21.03,-15.28,26.0000,234.0000
1983-12-18 06:00:00 UTC,2445686.750000,28.7317,-95.2428,0109,-21.28,-16.62,27.0000,232.0000
1983-12-18 06:30:00 UTC,2445686.770833,28.7317,-95.2428,0109,-21.45,-18.00,28.0000,230.0000